Location: Conflandey
(47.7287°N, 6.0456°E)
Time: 03:39:59
(UTC+00:00)

Cosmos 2173 Rocket - Pass Details

Date: 24 October 2021
Orbit: 945 x 1000 km, 83.0° (Epoch: 28 November)

Event Time Altitude Azimuth Distance (km) Brightness Sun altitude
Rises 18:30:50 0° 168° (SSE) 3,634 6.8 -20.8°
Reaches altitude 10° 18:33:22 10° 163° (SSE) 2,700 6.1 -21.2°
Maximum altitude 18:39:17 50° 91° (E) 1,235 4.1 -22.2°
Drops below altitude 10° 18:45:19 10° 18° (NNE) 2,754 6.2 -23.2°
Sets 18:47:56 0° 13° (NNE) 3,714 7.0 -23.6°
